Regional Weather Roundup
Issued by NWS Sioux Falls, SD

Home | Current Version | Previous Version | Text Only | Print | Product List | Glossary On
Versions: 1 2 3 4 5 6 7 8 9 10 11 12 13 14 15 16 17 18 19 20 21 22 23 24 25 26 27 28 29 30 31 32 33 34 35 36 37 38 39 40 41 42 43 44 45 46 47 48 49 50
000
ASUS43 KFSD 221310
RWRFSD

WEATHER ROUNDUP FOR SE SOUTH DAKOTA/SW MINNESOTA/NW IOWA
NATIONAL WEATHER SERVICE SIOUX FALLS SD
700 AM CST SUN JAN 22 2017

NOTE: "FAIR" INDICATES FEW OR NO CLOUDS BELOW 12,000 FEET WITH NO
SIGNIFICANT WEATHER AND OR OBSTRUCTIONS TO VISIBILITY.


SDZ038>040-050-052>070-221400-
SOUTHEAST SOUTH DAKOTA

CITY           SKY/WX    TMP DP  RH WIND       PRES   REMARKS
BROOKINGS      CLOUDY    32  31  96 NW12      29.69R WCI  23
CHAMBERLAIN    CLEAR     23  22  97 W8        29.75R WCI  13
HURON          CLOUDY    23  23 100 NW9       29.75R WCI  13
MADISON        CLOUDY    30  30 100 NW14        N/A  WCI  20
MITCHELL       FOG       28  28 100 NW8       29.76R VSB 3/4 WCI  20
SIOUX FALLS    CLOUDY    33  32  96 NW9       29.71R WCI  25
WINNER         FAIR      25  22  88 NW7       29.76R WCI  17
YANKTON        CLEAR     28  25  86 W12       29.73R WCI  18
$$

MNZ071-072-080-081-089-090-097-098-221400-
SOUTHWEST MINNESOTA

CITY           SKY/WX    TMP DP  RH WIND       PRES   REMARKS
FAIRMONT       FOG       34  33  96 NW9       29.66R VSB 3/4 WCI  27
JACKSON        FOG       32  32 100 N6        29.66R VSB 1/2 WCI  26
LUVERNE        CLOUDY    32  30  93 NW6       29.69R WCI  26
MARSHALL       CLOUDY    33  33 100 NW12      29.69R FOG     WCI  24
MONTEVIDEO     CLOUDY    34  34 100 N5        29.70R FOG     WCI  30
PIPESTONE      CLOUDY    34  34 100 NW10G17   29.67R FOG     WCI  26
REDWOOD FALLS  FOG       34  33  96 NW7       29.67R VSB 1   WCI  28
TRACY          DRZL/FOG  34  34 100 NW8       29.68R VSB 3/4 WCI  27
WINDOM         CLOUDY    34  34 100 NW10      29.66R FOG     WCI  26
WORTHINGTON    MIX PCPN  33  32  96 NW10      29.67R FOG     WCI  25
$$

IAZ001>003-012>014-020>022-031-032-NEZ013-014-SDZ071-221400-
NORTHWEST IOWA

CITY           SKY/WX    TMP DP  RH WIND       PRES   REMARKS
CHEROKEE       CLOUDY    33  32  96 NW6       29.69R WCI  27
DENISON        CLOUDY    32  30  93 NW8       29.67R WCI  25
ESTHERVILLE    FOG       32  32 100 NW6       29.65R VSB 1/4 WCI  26
LE MARS        CLOUDY    34  30  86 NW8G14    29.72R WCI  27
ORANGE CITY    CLOUDY    32  32 100 NW14      29.68R WCI  22
SHELDON        CLOUDY    32  32 100 NW12      29.67R WCI  23
SIOUX CITY     CLOUDY    34  30  85 NW13      29.72R WCI  25
SPENCER          N/A    N/A N/A N/A MISG      29.67R
STORM LAKE     CLOUDY    32  32 100 NW10      29.67R FOG     WCI  24
$$

ABBREVIATIONS USED IN REMARKS
   TC - TEMPERATURE IN CELSIUS
  WCI - WIND CHILL INDEX
   HX - HEAT INDEX
  VSB - VISIBILITY





USA.gov is the U.S. government's official web portal to all federal, state and local government web resources and services.